User: anonymous   Login
Location: Clatteringshaws Loch
(55.0508°N, 4.2860°W)
Time: 09:31:30
(UTC+01:00)
Language:

Sapphire - Orbit

View from above orbital plane
View from above orbital plane
View from above satellite
View from above satellite

Ground track
Ground track

The orbit data is extracted from the following two-line orbital elements,

1 26932U 01043D   17266.81592023 -.00000016 +00000-0 +25826-4 0  9997
2 26932 067.0562 199.1917 0007852 250.4992 109.5261 14.30258887834409
Epoch (UTC): 23 September 2017 19:34:55
Eccentricity: 0.0007852
inclination: 67.0562°
perigee height: 785 km
apogee height: 796 km
right ascension of ascending node: 199.1917°
argument of perigee: 250.4992°
revolutions per day: 14.30258887
mean anomaly at epoch: 109.5261°
orbit number at epoch: 83440

The dashed part of the orbit path shows where the satellite is in the earth's shadow,  

DLR